Home > Time Zones > World Clock > Weather > Peru > Lima > Past weeks

Flag for Peru Weather past 2 weeks in Lima, Lima, Peru

Now
64 °F

Overcast.


Feels Like: 64 °F
Forecast: 60 / 69 °F
Wind: 8 mph from South

Location: Lima-Callao / Aerop. Internacional Jorgechavez

Current Time: Aug 4, 2015 at 9:55:57 PM

Latest Report: Aug 4, 2015 at 9:00 PM


Visibility: N/A

Pressure: 29.89 "Hg

Humidity: 83%

Dew point: 59 °F

Location of LimaLocation

Historic Weather in Lima — Graph

°F

Lima temperature yesterday

Maximum temperature yesterday: 66 °F (at 11:00 AM)
Minimum temperature yesterday: 61 °F (at 5:00 AM)
Average temperature yesterday: 64 °F

Past Weeks' High & Low Weather Summary

 TemperatureHumidityPressure
High72 °F (Jul 21, 11:00 AM)100% (Aug 1, 6:00 AM)30.04 "Hg (Aug 1, 6:00 AM)
Low61 °F (Jul 28, 1:00 AM)64% (Jul 21, 5:00 PM)29.80 "Hg (Aug 3, 4:00 PM)
Average65 °F82%29.93 "Hg
* Reported Jul 20 8:00 PM — Aug 4 8:00 PM, Lima, Weather by CustomWeather, © 2015

Note: Actual official high and low records may vary slightly from our data, if they occured in-between our weather recording intervals... More about our weather records

Advertising

Lima weather history for previous 24 hours

 ConditionsComfort  
Time TempWeatherWind HumidityBarometerVisibility
8:00 PM
Tue, Aug 4
64 °FOvercast.9 mph83%29.86 "HgN/A
7:00 PM64 °FPassing clouds.9 mph83%29.83 "HgN/A
6:00 PM64 °FPassing clouds.10 mph78%29.83 "HgN/A
5:00 PM66 °FScattered clouds.9 mph78%29.83 "HgN/A
4:00 PM68 °FOvercast.8 mph73%29.83 "HgN/A
3:00 PM68 °FOvercast.7 mph73%29.86 "HgN/A
2:00 PM66 °FOvercast.7 mph78%29.86 "Hg5 mi
1:00 PM66 °FOvercast.7 mph78%29.89 "Hg5 mi
12:00 PM66 °FOvercast.3 mph78%29.92 "Hg4 mi
11:00 AM64 °FOvercast.3 mph83%29.92 "Hg4 mi
10:00 AM64 °FMore clouds than sun.2 mph83%29.95 "Hg4 mi
9:00 AM63 °FMore clouds than sun.2 mph88%29.95 "Hg4 mi
8:00 AM63 °FFog.2 mph88%29.92 "Hg2 mi
7:00 AM63 °FFog.2 mph88%29.89 "Hg2 mi
6:25 AM63 °FFog.2 mph88%29.89 "Hg2 mi
6:00 AM63 °FOvercast.3 mph88%29.89 "Hg4 mi
5:00 AM63 °FOvercast.3 mph83%29.86 "Hg4 mi
4:00 AM63 °FOvercast.2 mph83%29.86 "HgN/A
3:00 AM63 °FOvercast.3 mph83%29.86 "HgN/A
2:00 AM63 °FOvercast.5 mph83%29.89 "Hg6 mi
1:00 AM63 °FOvercast.3 mph83%29.89 "Hg6 mi
12:00 AM63 °FOvercast.3 mph88%29.89 "Hg5 mi
11:00 PM
Mon, Aug 3
63 °FOvercast.2 mph88%29.89 "Hg6 mi
10:00 PM64 °FOvercast.3 mph83%29.89 "HgN/A
9:00 PM64 °FMostly cloudy.5 mph83%29.89 "HgN/A
Weather by CustomWeather, © 2015

See weather overviewHow to use our weather pages